This demonstration page uses our WeatherBlox Daily Observations layout. Learn more.

Left ArrowRight Arrow

39.12711, -84.51439

Hourly Observations for October 13, 2020

Temp ( °F °C ) Dew Point ( °F °C ) Humidity (%) Winds ( mph kmh ) Pressure ( in mb ) Visibility ( mi km ) Precip ( " mm )
12:03 am 00:03 Mostly Cloudy 56 13.3 50 10 81 81 NNW 7 11 29.99 1016 10 16 0.00 0.00
12:15 am 00:15 Mostly Cloudy 57 13.9 50 10 78 78 NNW 12 19 29.99 1016 10 16 0.00 0.00
12:31 am 00:31 Cloudy 57 13.9 50 10 78 78 NNW 8 13 30.00 1016 10 16 0.00 0.00
12:53 am 00:53 Mostly Cloudy 56 13.3 49 9.4 77 77 VRB 6 9 30.00 1016 10 16 0.00 0.00
1:53 am 01:53 Clear 55 12.8 47 8.3 74 74 NNW 8 13 30.02 1017 10 16 0.00 0.00
2:53 am 02:53 Clear 53 11.7 46 7.8 77 77 NW 5 7 30.04 1017 10 16 0.00 0.00
3:53 am 03:53 Clear 51 10.6 45 7.2 80 80 WNW 6 9 30.06 1018 10 16 0.00 0.00
4:53 am 04:53 Clear 46 7.8 43 6.1 89 89 VRB 3 6 30.07 1018 10 16 0.00 0.00
5:48 am 05:48 Clear with Mist and Fog 45 7 45 7 100 100 Calm 30.11 1020 2 3 0.00 0.00
5:53 am 05:53 Clear with Mist and Fog 43 6.1 42 5.6 97 97 Calm 30.10 1019 1 2 0.00 0.00
6:01 am 06:01 Clear with Mist and Fog 43 6.1 42 5.6 97 97 Calm 30.13 1020 3 5 0.00 0.00
6:07 am 06:07 Clear with Mist and Fog 43 6.1 42 5.6 97 97 Calm 30.13 1020 2 3 0.00 0.00
6:14 am 06:14 Mostly Clear with Mist and Fog 44 6.7 43 6.1 96 96 Calm 30.12 1020 3 4 0.00 0.00
6:22 am 06:22 Partly Cloudy with Mist and Fog 46 7.8 44 6.7 93 93 Calm 30.13 1020 6 10 0.00 0.00
6:28 am 06:28 Mostly Clear with Mist and Fog 43 6.1 43 6.1 100 100 Calm 30.14 1020 2 3 0.00 0.00
6:33 am 06:33 Mostly Cloudy with Mist and Fog 43 6.1 43 6.1 100 100 Calm 30.14 1020 1 1 0.00 0.00
6:53 am 06:53 Mostly Cloudy with Mist and Fog 42 5.6 41 5 96 96 Calm 30.13 1020 1 2 0.00 0.00
7:53 am 07:53 Partly Cloudy with Mist and Fog 40 4.4 40 4.4 100 100 Calm 30.13 1020 2 3 0.00 0.00
8:09 am 08:09 Mostly Cloudy with Fog 39 3.9 39 3.9 100 100 Calm 30.17 1022 1 1 0.00 0.00
8:50 am 08:50 Partly Cloudy 45 7 45 7 100 100 Calm 30.17 1022 8 13 0.00 0.00
8:53 am 08:53 Partly Cloudy 46 7.8 45 7.2 96 96 Calm 30.16 1021 8 13 0.00 0.00
9:53 am 09:53 Sunny 54 12.2 49 9.4 83 83 Calm 30.18 1022 10 16 0.00 0.00
10:53 am 10:53 Sunny 59 15 50 10 72 72 Calm 30.19 1022 10 16 0.00 0.00
11:53 am 11:53 Sunny 62 16.7 44 6.7 52 52 VRB 3 6 30.19 1022 10 16 0.00 0.00
12:53 pm 12:53 Sunny 65 18.3 41 5 42 42 VRB 5 7 30.18 1022 10 16 0.00 0.00
1:53 pm 13:53 Sunny 66 18.9 39 3.9 37 37 VRB 6 9 30.15 1021 10 16 0.00 0.00
2:53 pm 14:53 Sunny 68 20 36 2.2 31 31 Calm 30.11 1020 10 16 0.00 0.00
3:53 pm 15:53 Sunny 69 20.6 36 2.2 30 30 VRB 7 11 30.10 1019 10 16 0.00 0.00
4:53 pm 16:53 Sunny 69 20.6 37 2.8 31 31 SSW 6 9 30.09 1019 10 16 0.00 0.00
5:53 pm 17:53 Sunny 67 19.4 37 2.8 33 33 WSW 7 11 30.07 1018 10 16 0.00 0.00
6:53 pm 18:53 Sunny 60 15.6 39 3.9 46 46 S 6 9 30.07 1018 10 16 0.00 0.00
7:53 pm 19:53 Clear 54 12.2 44 6.7 69 69 Calm 30.08 1019 10 16 0.00 0.00
8:53 pm 20:53 Clear 52 11.1 45 7.2 77 77 Calm 30.08 1019 10 16 0.00 0.00
9:53 pm 21:53 Clear 49 9.4 45 7.2 86 86 Calm 30.09 1019 10 16 0.00 0.00
10:53 pm 22:53 Clear 47 8.3 44 6.7 90 90 Calm 30.09 1019 10 16 0.00 0.00
11:53 pm 23:53 Clear 47 8.3 44 6.7 90 90 Calm 30.09 1019 10 16 0.00 0.00

Powered by AerisWeather